CW8614 Weather Reports


Display with metric or nautical units.
time (UTC)temp
F
wind
direction
speed
MPH
gust
MPH
rain 1hr
in
rain 24hr
in
rain mn
in
humidity
%
barometer
mb
20260504042017 48 0.0 0.0 0.00 0.00 0.00 86 1009.0
20260504041017 48 0.0 0.0 0.00 0.00 0.00 85 1009.1
20260504040057 48 0.0 0.0 0.00 0.00 0.00 85 1009.1
20260504035017 48 0.0 0.0 0.00 0.00 0.00 85 1009.3
20260504034017 48 0.0 0.0 0.00 0.00 0.00 84 1009.3
20260504033017 49 0.0 0.0 0.00 0.00 0.00 82 1009.5
20260504032017 49 0.0 0.0 0.00 0.00 0.00 82 1009.4
20260504031037 50 0.0 0.0 0.00 0.00 0.00 80 1009.4
20260504030036 50 0.0 0.0 0.00 0.00 0.00 78 1009.5
20260504025017 51 0.0 0.0 0.00 0.00 0.00 76 1009.7
20260504024017 51 0.0 2.0 0.00 0.00 0.00 73 1010.0
20260504023017 51 299 1.0 4.0 0.00 0.00 0.00 72 1010.2
20260504022017 51 283 2.0 8.0 0.00 0.00 0.00 72 1010.1
20260504021057 51 307 4.0 11.0 0.00 0.00 0.00 71 1010.3
20260504020017 52 306 6.0 16.0 0.00 0.00 0.00 69 1010.6
20260504015017 53 322 6.0 11.0 0.00 0.00 0.00 65 1010.7
20260504014017 54 319 4.0 9.0 0.00 0.00 0.00 61 1010.5
20260504013017 54 314 5.0 11.0 0.00 0.00 0.00 58 1010.2
20260504012037 54 314 4.0 14.0 0.00 0.00 0.00 58 1010.0
20260504011017 55 318 5.0 13.0 0.00 0.00 0.00 55 1010.0
20260504010017 55 314 6.0 13.0 0.00 0.00 0.00 52 1009.8
20260504005017 54 306 4.0 11.0 0.00 0.00 0.00 51 1009.6
20260504004017 53 0.0 1.0 0.00 0.00 0.00 56 1009.4
20260504003017 54 68 0.0 1.0 0.00 0.00 0.00 53 1009.4
20260504002017 54 0.0 2.0 0.00 0.00 0.00 51 1009.2
20260504001017 54 275 1.0 3.0 0.00 0.00 0.00 51 1009.2
20260504000017 54 282 1.0 6.0 0.00 0.00 0.00 51 1009.0
20260503235037 54 316 4.0 9.0 0.00 0.00 0.00 50 1009.3
20260503234017 54 319 4.0 12.0 0.00 0.00 0.00 51 1009.6
20260503233037 55 312 8.0 17.0 0.00 0.00 0.00 47 1009.8
20260503232017 55 318 4.0 8.0 0.00 0.00 0.00 46 1009.6
20260503231017 55 334 6.0 12.0 0.00 0.00 0.00 44 1009.5
20260503230037 55 304 2.0 8.0 0.00 0.00 0.00 44 1009.4
20260503225017 56 292 3.0 7.0 0.00 0.00 0.00 44 1009.2
20260503224017 56 285 3.0 6.0 0.00 0.00 0.00 43 1009.2
20260503223017 57 309 2.0 5.0 0.00 0.00 0.00 44 1009.1
20260503222037 56 290 2.0 6.0 0.00 0.00 0.00 44 1009.2
20260503221017 56 305 3.0 7.0 0.00 0.00 0.00 43 1009.4
20260503220017 56 295 4.0 9.0 0.00 0.00 0.00 45 1009.4
20260503215017 56 308 4.0 10.0 0.00 0.00 0.00 45 1009.4
20260503214017 56 285 3.0 6.0 0.00 0.00 0.00 46 1009.4
20260503213017 55 309 2.0 7.0 0.00 0.00 0.00 47 1009.3
20260503212017 55 292 3.0 10.0 0.00 0.00 0.00 46 1009.4
20260503211017 56 291 3.0 10.0 0.00 0.00 0.00 45 1009.5
20260503210037 56 311 4.0 10.0 0.00 0.00 0.00 44 1009.6
20260503205017 56 289 3.0 9.0 0.00 0.00 0.00 43 1009.6
20260503204017 56 290 5.0 12.0 0.00 0.00 0.00 42 1009.7
20260503203017 56 313 5.0 13.0 0.00 0.00 0.00 42 1009.7
20260503202017 54 316 4.0 10.0 0.00 0.00 0.00 44 1009.9
20260503201037 54 301 4.0 10.0 0.00 0.00 0.00 44 1010.0
20260503200017 54 322 6.0 14.0 0.00 0.00 0.00 43 1010.0
20260503195037 54 307 4.0 11.0 0.00 0.00 0.00 44 1010.1
20260503194017 54 289 4.0 12.0 0.00 0.00 0.00 44 1010.2
20260503193017 55 303 5.0 11.0 0.00 0.00 0.00 42 1010.3
20260503192037 55 321 4.0 15.0 0.00 0.00 0.00 41 1010.3
20260503191017 55 287 4.0 9.0 0.00 0.00 0.00 40 1010.4
20260503190017 55 281 4.0 11.0 0.00 0.00 0.00 40 1010.4
20260503185017 55 290 3.0 12.0 0.00 0.00 0.00 40 1010.5
20260503184017 55 304 7.0 12.0 0.00 0.00 0.00 39 1010.8
20260503183017 55 318 4.0 10.0 0.00 0.00 0.00 38 1010.8
20260503182037 55 291 5.0 11.0 0.00 0.00 0.00 40 1011.0
20260503181017 54 304 4.0 10.0 0.00 0.00 0.00 40 1011.1
20260503180017 54 293 5.0 12.0 0.00 0.00 0.00 39 1011.2
20260503175017 54 320 4.0 13.0 0.00 0.00 0.00 39 1011.4
20260503174017 54 294 4.0 14.0 0.00 0.00 0.00 39 1011.4
20260503173017 53 309 4.0 10.0 0.00 0.00 0.00 36 1011.5
20260503172017 53 279 4.0 9.0 0.00 0.00 0.00 37 1011.6
20260503171017 52 272 4.0 17.0 0.00 0.00 0.00 39 1011.7
20260503131017 44 335 3.0 8.0 0.00 0.00 0.00 67 1013.7
20260503081017 40 311 1.0 5.0 0.00 0.00 0.00 82 1013.0
20260503072017 40 300 1.0 4.0 0.00 0.00 0.00 84 1013.0
20260503071017 40 296 2.0 4.0 0.00 0.00 0.00 85 1013.0
20260503055017 36 0.0 0.0 0.00 0.00 0.00 92 1013.1
20260503054017 36 0.0 0.0 0.00 0.00 0.00 92 1013.2
20260503053017 36 0.0 0.0 0.00 0.00 0.00 92 1013.3
20260503052017 36 0.0 0.0 0.00 0.00 0.00 92 1013.4
20260503051037 36 0.0 0.0 0.00 0.00 0.00 93 1013.5
20260503050017 35 0.0 0.0 0.00 0.00 0.00 93 1013.6
20260503045037 35 0.0 0.0 0.00 0.00 0.00 93 1013.7
20260503044037 35 0.0 0.0 0.00 0.00 0.00 94 1013.8
20260503043017 35 0.0 0.0 0.00 0.00 0.00 93 1013.8